This is the latest recevied weather packets stored in our database for station/object OK1UOJ. If no packets are shown the sender has not sent any weather packets the latest 1 day(s).
| Time | Temp. | Humidity | Pressure | Rain* | Wind** | Luminosity | Snow |
|---|---|---|---|---|---|---|---|
| 1778011077 | 13.89° C | 10% | - | - | 0.89 m/s, 135° | - | - |
| 1778010805 | 13.89° C | 10% | - | - | 0.45 m/s, 139° | - | - |
| 1778010800 | 13.89° C | 10% | - | - | 0.45 m/s, 139° | - | - |
| 1778010523 | 13.89° C | 10% | - | - | 1.34 m/s, 131° | - | - |
| 1778009967 | 14.44° C | 10% | - | - | 0.89 m/s, 147° | - | - |
| 1778008857 | 15.56° C | 10% | - | - | 0.45 m/s, 164° | - | - |
| 1778007747 | 16.11° C | 10% | - | - | 0 m/s | - | - |
| 1778007469 | 16.67° C | 10% | - | - | 0 m/s | - | - |
| 1778007196 | 16.67° C | 10% | - | - | 0.45 m/s, 188° | - | - |
| 1778007191 | 16.67° C | 10% | - | - | 0.45 m/s, 188° | - | - |
| 1778006918 | 16.67° C | 10% | - | - | 0.89 m/s, 237° | - | - |
| 1778006914 | 16.67° C | 10% | - | - | 0.89 m/s, 237° | - | - |
| 1778006675 | 16.67° C | 10% | - | - | 0.45 m/s, 198° | - | - |
| 1778006636 | 16.67° C | 10% | - | - | 0.45 m/s, 198° | - | - |
| 1778005808 | 16.67° C | 10% | - | - | 0.45 m/s, 144° | - | - |
| 1778005526 | 16.11° C | 10% | - | - | 0.45 m/s, 312° | - | - |
| 1778005248 | 16.11° C | 10% | - | - | 0.89 m/s, 247° | - | - |
| 1778004975 | 16.11° C | 10% | - | - | 0.45 m/s, 158° | - | - |
| 1778004975 | 16.11° C | 10% | - | - | 0.45 m/s, 158° | - | - |
| 1778004970 | 16.11° C | 10% | - | - | 0.45 m/s, 158° | - | - |
| 1778004697 | 16.11° C | 10% | - | - | 0.89 m/s, 135° | - | - |
| 1778004692 | 16.11° C | 10% | - | - | 0.89 m/s, 135° | - | - |
| 1778004415 | 16.11° C | 10% | - | - | 0.89 m/s, 135° | - | - |
| 1778004137 | 16.67° C | 10% | - | - | 0.89 m/s, 135° | - | - |
| 1778003860 | 16.67° C | 10% | - | - | 0.89 m/s, 135° | - | - |
* Rain since midnight (hover to see other rain measurements)
** Current wind speed in m/s (hover to see current wind gust speed)